• In Latvia
  • List of Countries
  • For 7 days
  • Water Temperature
  • Satellite Maps
  • Weather Map
  • Weather Widgets
  • user-avatar
    Login

    Hourly Weather Jewłach

    Today, 23 October, Tuesday

    Time Temperature Precipitation Wind Pressure Humidity
    00:00 +20°C° 0 mm 3 mps 761 mmHg 54%
    01:00 +19°C° 0 mm 3 mps 761 mmHg 53%
    02:00 +19°C° 0 mm 3 mps 761 mmHg 54%
    03:00 +19°C° 0 mm 3 mps 761 mmHg 56%
    04:00 +19°C° 0 mm 3 mps 761 mmHg 57%
    05:00 +19°C° 0 mm 2 mps 761 mmHg 58%
    06:00 +18°C° 0 mm 2 mps 761 mmHg 59%
    07:00 +20°C° 0 mm 2 mps 761 mmHg 54%
    08:00 +21°C° 0 mm 3 mps 761 mmHg 49%
    09:00 +24°C° 0 mm 3 mps 761 mmHg 43%
    10:00 +25°C° 0 mm 3 mps 761 mmHg 40%
    11:00 +26°C° 0 mm 3 mps 760 mmHg 37%
    12:00 +27°C° 0 mm 3 mps 760 mmHg 34%
    13:00 +27°C° 0 mm 3 mps 760 mmHg 33%
    14:00 +27°C° 0 mm 3 mps 760 mmHg 33%
    15:00 +28°C° 0 mm 3 mps 759 mmHg 32%
    16:00 +26°C° 0 mm 2 mps 759 mmHg 35%
    17:00 +25°C° 0 mm 2 mps 760 mmHg 38%
    18:00 +23°C° 0 mm 1 mps 760 mmHg 41%
    19:00 +23°C° 0 mm 1 mps 760 mmHg 41%
    20:00 +22°C° 0 mm 1 mps 760 mmHg 41%
    21:00 +22°C° 0 mm 1 mps 760 mmHg 41%
    22:00 +21°C° 0 mm 1 mps 760 mmHg 43%
    23:00 +20°C° 0 mm 1 mps 760 mmHg 45%

    Tomorrow, 24 October, Wednesday

    Time Temperature Precipitation Wind Pressure Humidity
    00:00 +20°C° 0 mm 1 mps 760 mmHg 47%
    01:00 +19°C° 0 mm 1 mps 760 mmHg 50%
    02:00 +19°C° 0 mm 1 mps 759 mmHg 52%
    03:00 +18°C° 0 mm 1 mps 759 mmHg 55%
    04:00 +18°C° 0 mm 1 mps 759 mmHg 55%
    05:00 +18°C° 0 mm 1 mps 759 mmHg 55%
    06:00 +18°C° 0 mm 1 mps 758 mmHg 55%
    07:00 +19°C° 0 mm 2 mps 758 mmHg 48%
    08:00 +20°C° 0 mm 2 mps 758 mmHg 42%
    09:00 +23°C° 0 mm 2 mps 758 mmHg 36%
    10:00 +24°C° 0 mm 3 mps 757 mmHg 33%
    11:00 +25°C° 0 mm 3 mps 756 mmHg 31%
    12:00 +27°C° 0 mm 3 mps 755 mmHg 28%
    13:00 +27°C° 0 mm 3 mps 755 mmHg 28%
    14:00 +27°C° 0 mm 3 mps 754 mmHg 27%
    15:00 +28°C° 0 mm 3 mps 753 mmHg 27%
    16:00 +26°C° 0 mm 3 mps 753 mmHg 30%
    17:00 +25°C° 0 mm 2 mps 753 mmHg 33%
    18:00 +23°C° 0 mm 2 mps 753 mmHg 36%
    19:00 +23°C° 0 mm 2 mps 753 mmHg 36%
    20:00 +23°C° 0 mm 1 mps 753 mmHg 37%
    21:00 +23°C° 0 mm 1 mps 753 mmHg 37%
    22:00 +22°C° 0 mm 1 mps 752 mmHg 38%
    23:00 +21°C° 0 mm 2 mps 752 mmHg 39%

    Day after tomorrow, 25 October, Thursday

    Time Temperature Precipitation Wind Pressure Humidity
    00:00 +21°C° 0 mm 2 mps 752 mmHg 40%
    01:00 +20°C° 0 mm 2 mps 751 mmHg 41%
    02:00 +20°C° 0 mm 3 mps 751 mmHg 42%
    03:00 +20°C° 0 mm 3 mps 751 mmHg 43%
    04:00 +19°C° 0 mm 3 mps 751 mmHg 43%
    05:00 +19°C° 0 mm 3 mps 750 mmHg 44%
    06:00 +19°C° 0 mm 3 mps 750 mmHg 45%
    07:00 +21°C° 0 mm 4 mps 750 mmHg 40%
    08:00 +23°C° 0 mm 4 mps 750 mmHg 36%
    09:00 +26°C° 0 mm 4 mps 749 mmHg 32%
    10:00 +27°C° 0 mm 4 mps 749 mmHg 30%
    11:00 +29°C° 0 mm 4 mps 748 mmHg 28%
    12:00 +30°C° 0 mm 4 mps 748 mmHg 26%
    13:00 +30°C° 0 mm 3 mps 747 mmHg 25%
    14:00 +30°C° 0 mm 2 mps 746 mmHg 25%
    15:00 +30°C° 0 mm 2 mps 746 mmHg 24%
    16:00 +29°C° 0 mm 2 mps 746 mmHg 27%
    17:00 +27°C° 0 mm 2 mps 746 mmHg 30%
    18:00 +26°C° 0 mm 2 mps 746 mmHg 32%
    19:00 +25°C° 0 mm 2 mps 747 mmHg 33%
    20:00 +25°C° 0 mm 2 mps 747 mmHg 34%
    21:00 +24°C° 0 mm 2 mps 748 mmHg 35%
    22:00 +22°C° 0 mm 3 mps 748 mmHg 38%
    23:00 +21°C° 0 mm 4 mps 749 mmHg 41%

    26 October, Friday

    Time Temperature Precipitation Wind Pressure Humidity
    00:00 +20°C° 0 mm 5 mps 749 mmHg 44%
    01:00 +20°C° 0 mm 5 mps 750 mmHg 45%
    02:00 +19°C° 0 mm 6 mps 750 mmHg 47%
    03:00 +17°C° 0 mm 6 mps 751 mmHg 49%
    04:00 +17°C° 0 mm 6 mps 751 mmHg 48%
    05:00 +16°C° 0 mm 6 mps 752 mmHg 48%
    06:00 +16°C° 0 mm 6 mps 752 mmHg 48%
    07:00 +16°C° 0.4 mm 6 mps 753 mmHg 51%
    08:00 +15°C° 0.4 mm 6 mps 753 mmHg 53%
    09:00 +15°C° 0.4 mm 6 mps 754 mmHg 55%
    10:00 +15°C° 0.2 mm 6 mps 754 mmHg 57%
    11:00 +15°C° 0.2 mm 7 mps 755 mmHg 60%
    12:00 +15°C° 0.2 mm 7 mps 755 mmHg 62%
    13:00 +14°C° 0.7 mm 7 mps 755 mmHg 63%
    14:00 +14°C° 0.7 mm 7 mps 756 mmHg 64%
    15:00 +14°C° 0.7 mm 7 mps 756 mmHg 65%
    16:00 +14°C° 0.8 mm 7 mps 757 mmHg 62%
    17:00 +14°C° 0.8 mm 7 mps 757 mmHg 60%
    18:00 +15°C° 0.8 mm 6 mps 758 mmHg 57%
    19:00 +15°C° 0.2 mm 6 mps 759 mmHg 55%
    20:00 +15°C° 0.2 mm 6 mps 759 mmHg 53%
    21:00 +15°C° 0.2 mm 5 mps 760 mmHg 51%
    22:00 +14°C° 0 mm 5 mps 760 mmHg 51%
    23:00 +14°C° 0 mm 5 mps 761 mmHg 52%

    27 October, Saturday

    Time Temperature Precipitation Wind Pressure Humidity
    00:00 +13°C° 0 mm 5 mps 761 mmHg 52%
    01:00 +13°C° 0 mm 6 mps 762 mmHg 50%
    02:00 +13°C° 0 mm 6 mps 762 mmHg 48%
    03:00 +11°C° 0 mm 6 mps 763 mmHg 47%
    04:00 +11°C° 0 mm 6 mps 763 mmHg 46%
    05:00 +11°C° 0 mm 6 mps 764 mmHg 46%
    06:00 +11°C° 0 mm 6 mps 765 mmHg 45%
    07:00 +13°C° 0 mm 6 mps 765 mmHg 43%
    08:00 +15°C° 0 mm 6 mps 766 mmHg 41%
    09:00 +16°C° 0 mm 7 mps 766 mmHg 39%
    10:00 +17°C° 0 mm 6 mps 766 mmHg 37%
    11:00 +19°C° 0 mm 6 mps 766 mmHg 35%
    12:00 +20°C° 0 mm 5 mps 767 mmHg 32%
    13:00 +20°C° 0 mm 4 mps 767 mmHg 32%
    14:00 +21°C° 0 mm 3 mps 767 mmHg 31%
    15:00 +21°C° 0 mm 2 mps 767 mmHg 30%
    16:00 +20°C° 0 mm 2 mps 768 mmHg 33%
    17:00 +18°C° 0 mm 2 mps 768 mmHg 36%
    18:00 +17°C° 0 mm 2 mps 769 mmHg 38%
    19:00 +16°C° 0 mm 2 mps 770 mmHg 41%
    20:00 +16°C° 0 mm 2 mps 770 mmHg 44%
    21:00 +14°C° 0 mm 3 mps 770 mmHg 47%
    22:00 +14°C° 0 mm 3 mps 770 mmHg 51%
    23:00 +14°C° 0 mm 2 mps 771 mmHg 56%

    28 October, Sunday

    Time Temperature Precipitation Wind Pressure Humidity
    00:00 +14°C° 0 mm 2 mps 771 mmHg 60%
    01:00 +13°C° 0 mm 2 mps 770 mmHg 61%
    02:00 +13°C° 0 mm 1 mps 770 mmHg 62%
    03:00 +13°C° 0 mm 1 mps 770 mmHg 63%
    04:00 +12°C° 0 mm 1 mps 770 mmHg 63%
    05:00 +12°C° 0 mm 1 mps 771 mmHg 63%
    06:00 +12°C° 0 mm 1 mps 771 mmHg 63%
    07:00 +13°C° 0 mm 1 mps 771 mmHg 60%
    08:00 +15°C° 0 mm 1 mps 770 mmHg 57%
    09:00 +16°C° 0 mm 1 mps 770 mmHg 53%
    10:00 +18°C° 0 mm 1 mps 770 mmHg 50%
    11:00 +19°C° 0 mm 1 mps 769 mmHg 47%
    12:00 +20°C° 0 mm 1 mps 769 mmHg 44%
    13:00 +20°C° 0 mm 1 mps 769 mmHg 43%
    14:00 +20°C° 0 mm 1 mps 768 mmHg 42%
    15:00 +21°C° 0 mm 1 mps 768 mmHg 41%
    16:00 +20°C° 0 mm 1 mps 768 mmHg 45%
    17:00 +19°C° 0 mm 1 mps 768 mmHg 48%
    18:00 +18°C° 0 mm 1 mps 769 mmHg 52%
    19:00 +16°C° 0 mm 1 mps 769 mmHg 54%
    20:00 +16°C° 0 mm 1 mps 769 mmHg 56%
    21:00 +15°C° 0 mm 1 mps 769 mmHg 58%
    22:00 +15°C° 0 mm 1 mps 769 mmHg 59%
    23:00 +15°C° 0 mm 1 mps 769 mmHg 60%

    29 October, Monday

    Time Temperature Precipitation Wind Pressure Humidity
    00:00 +14°C° 0 mm 1 mps 769 mmHg 61%
    01:00 +14°C° 0 mm 1 mps 769 mmHg 62%
    02:00 +14°C° 0 mm 1 mps 769 mmHg 63%
    03:00 +12°C° 0 mm 0 mps 768 mmHg 64%
    04:00 +12°C° 0 mm 0 mps 768 mmHg 65%
    05:00 +12°C° 0 mm 0 mps 769 mmHg 66%
    06:00 +12°C° 0 mm 0 mps 769 mmHg 67%
    07:00 +14°C° 0 mm 1 mps 769 mmHg 63%
    08:00 +16°C° 0 mm 1 mps 768 mmHg 58%
    09:00 +18°C° 0 mm 1 mps 768 mmHg 54%
    10:00 +19°C° 0 mm 1 mps 768 mmHg 50%
    11:00 +20°C° 0 mm 1 mps 768 mmHg 46%
    12:00 +22°C° 0 mm 1 mps 767 mmHg 43%
    13:00 +22°C° 0 mm 1 mps 767 mmHg 41%
    14:00 +22°C° 0 mm 1 mps 767 mmHg 40%
    15:00 +23°C° 0 mm 1 mps 766 mmHg 39%
    16:00 +22°C° 0 mm 1 mps 766 mmHg 43%
    17:00 +20°C° 0 mm 1 mps 767 mmHg 47%
    18:00 +19°C° 0 mm 1 mps 767 mmHg 51%
    19:00 +18°C° 0 mm 2 mps 767 mmHg 52%
    20:00 +17°C° 0 mm 2 mps 767 mmHg 54%
    21:00 +17°C° 0 mm 2 mps 767 mmHg 55%
    22:00 +16°C° 0 mm 2 mps 767 mmHg 56%
    23:00 +16°C° 0 mm 2 mps 767 mmHg 57%
    Show more